Weather History for KUTA - October, 2012

Change the Weather History Date:

Saturday, October 6, 2012

  Actual Average (KMEM) Record (KMEM)
Temperature  
Mean Temperature 50 °F 68 °F  
Max Temperature 55 °F 78 °F 93 °F (2007)
Min Temperature 44 °F 57 °F 39 °F (1964)
Degree Days  
Heating Degree Days 16 2  
Month to date heating degree days 10  
Since 1 July heating degree days 21  
Cooling Degree Days 0 4  
Month to date cooling degree days 30  
Year to date cooling degree days 2181  
Moisture  
Dew Point 42 °F    
Average Humidity 80    
Maximum Humidity 93    
Minimum Humidity 51    
Precipitation  
Precipitation 0.48 in 0.12 in 2.74 in (1982)
Month to date precipitation 0.71  
Year to date precipitation 39.18  
Snow  
Snow 0.00 in 0.00 in 0.00 in (2002)
Month to date snowfall 0.0  
Since 1 July snowfall 0.0  
Since 1 September snowfall 0.0  
Snow Depth -    
Sea Level Pressure  
Sea Level Pressure 30.18 in    
Wind  
Wind Speed 14 mph (North)    
Max Wind Speed 23 mph    
Max Gust Speed 28 mph    
Visibility 10 miles    
Events Rain , Thunderstorm    
T = Trace of Precipitation, MM = Missing Value Source: NWS Daily Summary

Daily Weather History Graph

Daily Weather History Graph

Search for Another Location

Airport or City:

Trip Planner

Search our weather history database for the weather conditions in past years. The results will help you decide how hot, cold, wet, or windy it might be!

Date:

Astronomy

Oct. 06, 2012 Rise Set
Actual Time 7:00 AM CDT 6:37 PM CDT
Civil Twilight 6:35 AM CDT 7:03 PM CDT
Nautical Twilight 6:05 AM CDT 7:32 PM CDT
Astronomical Twilight 5:36 AM CDT 8:01 PM CDT
Moon 11:04 PM CDT (10/6) 12:43 PM CDT (10/6)
Length of Visible Light 12h 28m
Length of Day
11h 37m
Waning Gibbous, 65% of the Moon is Illuminated
Oct 6
Waning Gibbous
Oct 8
Last Quarter
Oct 15
New
Oct 21
First Quarter
Oct 29
Full

Hourly Weather History & Observations

Time (CDT) Temp. Windchill Dew Point Humidity Pressure Visibility Wind Dir Wind Speed Gust Speed Precip Events Conditions
12:15 AM 50.0 °F - 44.6 °F 82% 30.15 in 10.0 mi North 23.0 mph 27.6 mph N/A Rain , Thunderstorm Light Thunderstorms and Rain
12:55 AM 48.2 °F - 44.6 °F 87% 30.12 in 10.0 mi North 18.4 mph 24.2 mph 0.01 in Rain , Thunderstorm Light Thunderstorms and Rain
1:15 AM 46.4 °F 39.2 °F 44.6 °F 93% 30.15 in 10.0 mi North 18.4 mph 23.0 mph 0.01 in Rain , Thunderstorm Light Thunderstorms and Rain
1:35 AM 46.4 °F 40.7 °F 44.6 °F 93% 30.16 in 10.0 mi North 12.7 mph - 0.02 in Rain , Thunderstorm Light Thunderstorms and Rain
1:55 AM 46.4 °F 40.1 °F 44.6 °F 93% 30.16 in 10.0 mi North 15.0 mph - 0.02 in Thunderstorm Thunderstorm
2:15 AM 46.4 °F 40.7 °F 44.6 °F 93% 30.15 in 10.0 mi North 12.7 mph 19.6 mph N/A Thunderstorm Unknown
2:35 AM 46.4 °F 40.1 °F 44.6 °F 93% 30.15 in 10.0 mi North 15.0 mph 20.7 mph N/A Rain , Thunderstorm Rain
2:55 AM 46.4 °F 40.7 °F 44.6 °F 93% 30.15 in 10.0 mi North 12.7 mph 19.6 mph N/A Rain , Thunderstorm Light Thunderstorms and Rain
3:15 AM 46.4 °F 40.7 °F 44.6 °F 93% 30.15 in 10.0 mi North 12.7 mph 17.3 mph N/A Thunderstorm Overcast
3:35 AM 46.4 °F 41.1 °F 44.6 °F 93% 30.15 in 10.0 mi North 11.5 mph - N/A   Overcast
3:55 AM 46.4 °F 40.7 °F 44.6 °F 93% 30.15 in 10.0 mi North 12.7 mph 18.4 mph N/A   Overcast
4:15 AM 46.4 °F 40.1 °F 44.6 °F 93% 30.15 in 10.0 mi North 15.0 mph - N/A   Overcast
4:35 AM 46.4 °F 41.1 °F 44.6 °F 93% 30.16 in 10.0 mi North 11.5 mph 17.3 mph N/A   Overcast
4:55 AM 46.4 °F 40.7 °F 42.8 °F 87% 30.16 in 10.0 mi North 12.7 mph - N/A   Overcast
5:15 AM 46.4 °F 40.4 °F 42.8 °F 87% 30.16 in 10.0 mi North 13.8 mph 20.7 mph N/A   Overcast
5:35 AM 46.4 °F 40.1 °F 42.8 °F 87% 30.17 in 10.0 mi North 15.0 mph 18.4 mph N/A   Overcast
5:55 AM 46.4 °F 39.8 °F 42.8 °F 87% 30.18 in 10.0 mi North 16.1 mph - N/A   Overcast
6:15 AM 46.4 °F 40.7 °F 42.8 °F 87% 30.18 in 10.0 mi North 12.7 mph - N/A   Overcast
6:35 AM 46.4 °F 40.1 °F 42.8 °F 87% 30.19 in 10.0 mi North 15.0 mph - N/A   Overcast
6:55 AM 46.4 °F 40.4 °F 42.8 °F 87% 30.19 in 10.0 mi North 13.8 mph - N/A   Overcast
7:15 AM 46.4 °F 41.5 °F 42.8 °F 87% 30.21 in 10.0 mi North 10.4 mph 18.4 mph N/A   Overcast
7:35 AM 46.4 °F 40.1 °F 41.0 °F 81% 30.20 in 10.0 mi North 15.0 mph 23.0 mph N/A   Mostly Cloudy
7:55 AM 46.4 °F 40.4 °F 41.0 °F 81% 30.21 in 10.0 mi NNE 13.8 mph 18.4 mph N/A   Scattered Clouds
8:15 AM 46.4 °F 40.4 °F 41.0 °F 81% 30.20 in 10.0 mi NNE 13.8 mph 20.7 mph N/A   Mostly Cloudy
8:35 AM 46.4 °F 40.1 °F 41.0 °F 81% 30.22 in 10.0 mi North 15.0 mph - N/A   Mostly Cloudy
9:15 AM 50.0 °F - 41.0 °F 71% 30.21 in 10.0 mi NNE 15.0 mph 19.6 mph N/A   Scattered Clouds
9:35 AM 48.2 °F - 39.2 °F 71% 30.22 in 10.0 mi NNE 11.5 mph - N/A   Mostly Cloudy
9:55 AM 50.0 °F - 37.4 °F 62% 30.22 in 10.0 mi NNE 17.3 mph - N/A   Mostly Cloudy
10:15 AM 50.0 °F - 37.4 °F 62% 30.20 in 10.0 mi NNE 17.3 mph 20.7 mph N/A   Scattered Clouds
10:35 AM 51.8 °F - 37.4 °F 58% 30.19 in 10.0 mi NE 12.7 mph - N/A   Scattered Clouds
10:55 AM 51.8 °F - 37.4 °F 58% 30.18 in 10.0 mi NNE 15.0 mph 18.4 mph N/A   Scattered Clouds
11:15 AM 53.6 °F - 37.4 °F 54% 30.17 in 10.0 mi ENE 10.4 mph - N/A   Clear
11:35 AM 53.6 °F - 37.4 °F 54% 30.15 in 10.0 mi ENE 12.7 mph 16.1 mph N/A   Clear
11:55 AM 55.4 °F - 37.4 °F 51% 30.17 in 10.0 mi NE 10.4 mph 17.3 mph N/A   Clear
12:15 PM 55.4 °F - 37.4 °F 51% 30.17 in 10.0 mi NNE 9.2 mph - N/A   Clear
12:35 PM 55.4 °F - 37.4 °F 51% 30.18 in 10.0 mi North 6.9 mph - N/A   Scattered Clouds
12:55 PM 55.4 °F - 37.4 °F 51% 30.19 in 10.0 mi North 10.4 mph 16.1 mph N/A Thunderstorm Scattered Clouds
1:15 PM 53.6 °F - 37.4 °F 54% 30.19 in 10.0 mi North 9.2 mph - N/A Rain , Thunderstorm Rain
1:35 PM 51.8 °F - 42.8 °F 71% 30.16 in 10.0 mi North 10.4 mph - 0.01 in Rain , Thunderstorm Light Thunderstorms and Rain
1:55 PM 50.0 °F - 42.8 °F 76% 30.15 in 10.0 mi NNE 8.1 mph - 0.04 in Rain , Thunderstorm Rain
2:15 PM 50.0 °F - 44.6 °F 82% 30.16 in 10.0 mi North 8.1 mph - 0.04 in Rain Rain
2:35 PM 48.2 °F - 44.6 °F 87% 30.17 in 7.0 mi NNW 9.2 mph - 0.08 in Rain , Thunderstorm Rain
2:55 PM 46.4 °F 40.1 °F 44.6 °F 93% 30.18 in 10.0 mi NNW 15.0 mph - 0.10 in Rain Light Rain
3:15 PM 50.0 °F - 44.6 °F 82% 30.14 in 10.0 mi North 11.5 mph - 0.01 in Rain , Thunderstorm Light Thunderstorms and Rain
3:35 PM 50.0 °F - 44.6 °F 82% 30.15 in 10.0 mi North 11.5 mph - 0.01 in Thunderstorm Mostly Cloudy
3:55 PM 50.0 °F - 44.6 °F 82% 30.16 in 10.0 mi North 11.5 mph - 0.01 in Rain Light Rain
4:15 PM 50.0 °F - 44.6 °F 82% 30.20 in 7.0 mi NW 11.5 mph - 0.02 in Rain , Thunderstorm Rain
4:35 PM 48.2 °F - 44.6 °F 87% 30.18 in 7.0 mi North 11.5 mph - 0.11 in Rain Light Rain
4:55 PM 50.0 °F - 44.6 °F 82% 30.15 in 10.0 mi Calm Calm - 0.11 in Thunderstorm Mostly Cloudy
5:15 PM 50.0 °F - 44.6 °F 82% 30.14 in 10.0 mi North 4.6 mph - N/A   Mostly Cloudy
5:35 PM 50.0 °F - 44.6 °F 82% 30.15 in 10.0 mi North 5.8 mph - N/A   Overcast
5:55 PM 50.0 °F - 44.6 °F 82% 30.16 in 10.0 mi North 9.2 mph - N/A   Overcast
6:15 PM 50.0 °F - 42.8 °F 76% 30.18 in 10.0 mi North 11.5 mph - N/A   Overcast
6:35 PM 50.0 °F - 42.8 °F 76% 30.17 in 10.0 mi North 6.9 mph - N/A   Overcast
6:55 PM 50.0 °F - 42.8 °F 76% 30.18 in 10.0 mi North 8.1 mph - N/A   Overcast
7:15 PM 50.0 °F - 44.6 °F 82% 30.18 in 10.0 mi North 6.9 mph - N/A   Mostly Cloudy
7:35 PM 50.0 °F - 44.6 °F 82% 30.17 in 10.0 mi North 8.1 mph - N/A   Mostly Cloudy
7:55 PM 50.0 °F - 42.8 °F 76% 30.18 in 10.0 mi North 12.7 mph 18.4 mph N/A   Overcast
8:15 PM 48.2 °F - 41.0 °F 76% 30.18 in 10.0 mi North 16.1 mph 20.7 mph N/A   Overcast
8:35 PM 46.4 °F 40.1 °F 41.0 °F 81% 30.17 in 10.0 mi North 15.0 mph 24.2 mph N/A Thunderstorm Mostly Cloudy
8:55 PM 46.4 °F 40.7 °F 42.8 °F 87% 30.20 in 10.0 mi NNE 12.7 mph - N/A Thunderstorm Overcast
9:15 PM 46.4 °F 40.7 °F 42.8 °F 87% 30.19 in 10.0 mi NNE 12.7 mph - N/A Rain , Thunderstorm Light Thunderstorms and Rain
9:35 PM 46.4 °F 41.9 °F 42.8 °F 87% 30.21 in 10.0 mi North 9.2 mph 18.4 mph 0.02 in Rain , Thunderstorm Thunderstorms and Rain
9:55 PM 46.4 °F 42.4 °F 42.8 °F 87% 30.22 in 5.0 mi North 8.1 mph - 0.08 in Rain , Thunderstorm Heavy Thunderstorms and Rain
10:15 PM 44.6 °F 39.7 °F 42.8 °F 93% 30.22 in 7.0 mi North 9.2 mph - 0.03 in Rain , Thunderstorm Rain
10:35 PM 44.6 °F 39.7 °F 42.8 °F 93% 30.22 in 10.0 mi North 9.2 mph - 0.05 in Rain Rain
10:55 PM 44.6 °F 40.7 °F 42.8 °F 93% 30.22 in 10.0 mi North 6.9 mph - 0.05 in   Light Drizzle
11:15 PM 44.6 °F 38.8 °F 42.8 °F 93% 30.21 in 10.0 mi NNE 11.5 mph 17.3 mph 0.01 in Rain Light Rain
11:35 PM 46.4 °F 45.2 °F 42.8 °F 87% 30.23 in 7.0 mi North 3.5 mph - 0.02 in Rain Rain
11:55 PM 46.4 °F 44.3 °F 42.8 °F 87% 30.23 in 5.0 mi NNW 4.6 mph - 0.06 in Rain Heavy Rain